Valparaiso, FL

3:57 AM CST on February 21, 2018 (GMT -0600)
Eglin Air Force Base

Weather History for KVPS - January, 2012

Change the Weather History Date:

Wednesday, January 11, 2012

  Actual Average Record
Temperature  
Mean Temperature 59 °F -  
Max Temperature 68 °F 59 °F 80 °F (1957)
Min Temperature 47 °F 35 °F 10 °F (1982)
Degree Days  
Heating Degree Days 6    
Growing Degree Days 9 (Base 50)    
Moisture  
Dew Point 54 °F    
Average Humidity 83    
Maximum Humidity 100    
Minimum Humidity 57    
Precipitation  
Precipitation 0.27 in - - ()
Sea Level Pressure  
Sea Level Pressure 29.75 in    
Wind  
Wind Speed 17 mph (SW)    
Max Wind Speed 26 mph    
Max Gust Speed 33 mph    
Visibility 8 miles    
Events Rain , Thunderstorm    
Averages and records for this station are not official NWS values.
T = Trace of Precipitation, MM = Missing Value Source: NWS Daily Summary

Daily Weather History Graph

Daily Weather History Graph

Search for Another Location

Airport or City:

Trip Planner

Search our weather history database for the weather conditions in past years. The results will help you decide how hot, cold, wet, or windy it might be!

Date:

Astronomy

Jan. 11, 2012 Rise Set
Actual Time 6:44 AM CST 5:03 PM CST
Civil Twilight 6:18 AM CST 5:30 PM CST
Nautical Twilight 5:48 AM CST 5:59 PM CST
Astronomical Twilight 5:19 AM CST 6:28 PM CST
Moon 7:47 PM CST (1/11) 8:08 AM CST (1/11)
Length of Visible Light 11h 12m
Length of Day
10h 19m
Waning Gibbous, 93% of the Moon is Illuminated
Jan 11
Waning Gibbous
Jan 16
Last Quarter
Jan 23
New
Jan 30
First Quarter
Feb 7
Full

Hourly Weather History & Observations

Time (CST) Temp. Dew Point Humidity Pressure Visibility Wind Dir Wind Speed Gust Speed Precip Events Conditions
12:02 AM 68.0 °F 64.4 °F 88% 29.71 in 5.0 mi South 21.9 mph 31.1 mph N/A Rain Light Rain
12:15 AM 66.2 °F 64.4 °F 94% 29.71 in 5.0 mi South 18.4 mph 32.2 mph N/A   Overcast
12:23 AM 66.2 °F 64.4 °F 94% 29.70 in 6.0 mi SSE 23.0 mph 28.8 mph N/A Rain Light Rain
12:42 AM 66.2 °F 66.2 °F 100% 29.69 in 5.0 mi SSE 19.6 mph 27.6 mph N/A Rain , Thunderstorm Light Thunderstorms and Rain
12:46 AM 66.2 °F 66.2 °F 100% 29.69 in 3.0 mi SSE 18.4 mph - N/A Rain , Thunderstorm Light Thunderstorms and Rain
12:52 AM 66.2 °F 66.2 °F 100% 29.68 in 2.0 mi South 21.9 mph - N/A Rain , Thunderstorm Thunderstorms and Rain
12:55 AM 66.9 °F 66.6 °F 99% 29.70 in 1.5 mi South 24.2 mph 28.8 mph 0.10 in Rain , Thunderstorm Thunderstorms and Rain
12:59 AM 66.2 °F 66.2 °F 100% 29.69 in 1.0 mi South 23.0 mph 33.4 mph N/A Rain Rain
1:02 AM 66.2 °F 66.2 °F 100% 29.69 in 3.0 mi South 26.5 mph 33.4 mph N/A Rain Light Rain
1:16 AM 66.2 °F 66.2 °F 100% 29.69 in 6.0 mi SSW 12.7 mph 31.1 mph N/A   Overcast
1:26 AM 66.2 °F 66.2 °F 100% 29.69 in 10.0 mi SSW 15.0 mph - N/A   Overcast
1:37 AM 66.2 °F 66.2 °F 100% 29.69 in 6.0 mi SSW 15.0 mph 21.9 mph N/A   Overcast
1:55 AM 66.0 °F 64.6 °F 95% 29.70 in 10.0 mi SW 16.1 mph 27.6 mph 0.17 in   Overcast
2:42 AM 62.6 °F 59.0 °F 88% 29.70 in 10.0 mi WSW 15.0 mph 21.9 mph N/A   Mostly Cloudy
2:55 AM 61.3 °F 56.8 °F 85% 29.71 in 10.0 mi SW 13.8 mph 21.9 mph N/A   Mostly Cloudy
3:55 AM 59.0 °F 53.2 °F 81% 29.72 in 10.0 mi West 9.2 mph 19.6 mph N/A   Mostly Cloudy
4:55 AM 57.7 °F 50.5 °F 77% 29.74 in 10.0 mi WSW 12.7 mph 26.5 mph N/A   Mostly Cloudy
5:51 AM 57.2 °F 50.0 °F 77% 29.74 in 10.0 mi West 16.1 mph 27.6 mph N/A   Scattered Clouds
5:55 AM 57.2 °F 49.1 °F 74% 29.76 in 10.0 mi West 16.1 mph 27.6 mph N/A   Scattered Clouds
6:55 AM 54.9 °F 47.1 °F 75% 29.77 in 10.0 mi West 13.8 mph 21.9 mph N/A   Partly Cloudy
7:55 AM 54.1 °F 45.0 °F 71% 29.80 in 10.0 mi West 17.3 mph 24.2 mph N/A   Scattered Clouds
8:28 AM 53.6 °F 44.6 °F 72% 29.79 in 10.0 mi West 15.0 mph 25.3 mph N/A   Scattered Clouds
8:56 AM 55.0 °F 45.7 °F 71% 29.82 in 10.0 mi West 15.0 mph - N/A   Mostly Cloudy
9:55 AM 57.6 °F 44.6 °F 62% 29.83 in 10.0 mi West 21.9 mph 26.5 mph N/A   Scattered Clouds
10:55 AM 59.5 °F 44.2 °F 57% 29.82 in 10.0 mi West 15.0 mph 24.2 mph N/A   Scattered Clouds
11:57 AM 59.9 °F 46.0 °F 60% 29.78 in 10.0 mi West 18.4 mph 29.9 mph N/A   Scattered Clouds
12:55 PM 60.8 °F 47.1 °F 61% 29.75 in 10.0 mi WSW 17.3 mph 27.6 mph N/A   Scattered Clouds
2:56 PM 61.0 °F 48.9 °F 64% 29.76 in 10.0 mi WSW 13.8 mph - N/A   Scattered Clouds
3:55 PM 59.9 °F 48.2 °F 65% 29.76 in 10.0 mi West 12.7 mph 18.4 mph N/A   Partly Cloudy
4:59 PM 57.4 °F 48.6 °F 72% 29.77 in 10.0 mi West 10.4 mph - N/A   Partly Cloudy
5:58 PM 55.2 °F 48.6 °F 78% 29.78 in 10.0 mi WSW 6.9 mph - N/A   Partly Cloudy
6:57 PM 53.8 °F 47.8 °F 80% 29.79 in 10.0 mi West 8.1 mph - N/A   Clear
7:58 PM 53.2 °F 47.7 °F 81% 29.81 in 10.0 mi WSW 5.8 mph - N/A   Clear
8:58 PM 52.0 °F 47.1 °F 83% 29.81 in 10.0 mi WNW 2.3 mph - N/A   Clear
9:56 PM 50.9 °F 47.5 °F 88% 29.82 in 10.0 mi WSW 4.6 mph - N/A   Clear
10:57 PM 50.0 °F 46.9 °F 89% 29.82 in 10.0 mi WNW 3.5 mph - N/A   Clear
11:56 PM 47.5 °F 45.0 °F 91% 29.82 in 10.0 mi West 5.8 mph - N/A   Clear